#timestamp,LO_Frequency,Hit,StdDev 
1539842415.1,286046996.7,N
1539842416.0,286046996.7,N
1539842435.8,286046996.6,N
1539842455.6,286046997.0,N
1539842475.5,286046999.5,N
1539842495.3,286046996.5,N
1539842515.2,286046999.3,N
1539842535.9,286046997.9,N
1539842555.7,286046997.2,N
1539842575.6,286046997.1,N
1539842595.4,286046997.9,N
1539842615.2,286046999.3,N
1539842635.1,286046999.6,N
1539842636.0,286046999.6,N
1539842655.8,286047000.2,N
1539842675.7,286047000.5,N
1539842695.5,286047000.3,N
1539842715.3,286046998.4,N
1539842735.2,286046998.3,N
1539842755.0,286046999.4,N
1539842755.9,286046999.4,N
1539842775.7,286046998.3,N
1539842795.6,286046999.4,N
1539842815.4,286047000.6,N
1539842835.3,286046999.9,N
1539842855.1,286047002.3,N
1539842856.0,286047002.3,N
1539842875.8,286047000.2,N
1539842895.7,286046999.1,N
1539842915.5,286046998.3,N
1539842935.3,286046996.6,N
1539842955.2,286046998.7,N
1539842975.0,286047000.8,N
1539842975.9,286047000.8,N
1539842995.8,286047000.4,N
1539843015.6,286047001.0,N
1539843035.4,286047002.8,N
1539843055.3,286047006.5,Y
1539843075.1,286047008.3,P
1539843095.9,286047009.1,N
1539843115.7,286047009.6,N
1539843135.5,286047008.9,N
1539843155.4,286047006.4,N
1539843175.2,286047007.2,N
1539843195.0,286047007.7,N
1539843195.9,286047007.7,N
1539843215.8,286047011.1,Y
1539843235.6,286047003.2,P
1539843255.5,286047005.1,N
1539843275.3,286047008.4,P
1539843295.1,286047008.0,Y
1539843315.9,286047004.0,P
1539843335.7,286047004.0,P
1539843355.5,286047005.7,P
1539843375.4,286047003.4,Y
1539843395.2,286047001.0,P
1539843415.1,286046997.6,N
1539843416.0,286046997.6,N
1539843435.8,286047001.2,N
1539843455.6,286046996.6,N
1539843475.5,286047000.8,N
1539843495.3,286047000.4,N
1539843515.2,286046999.0,N
1539843535.9,286046999.2,N
1539843555.7,286046998.2,N
1539843575.6,286046997.6,N
1539843595.4,286046996.7,N
1539843615.2,286046996.8,N
1539843635.1,286046999.4,N
1539843636.0,286046999.4,N
1539843655.8,286046998.1,N
1539843675.7,286046998.3,N
1539843695.5,286047001.1,N
1539843715.3,286047002.8,N
1539843735.2,286047002.7,N
1539843755.9,286046998.9,N
1539843775.7,286047002.5,N
1539843795.6,286047002.4,N
1539843815.4,286047001.4,N
1539843835.3,286047001.6,N
1539843855.1,286047001.7,N
1539843856.0,286047001.7,N
1539843875.8,286047004.1,N
1539843895.7,286047001.3,N
1539843915.5,286046999.8,N
1539843935.3,286047004.4,N
1539843955.2,286047002.1,N
1539843975.0,286046998.5,N
1539843975.9,286046998.5,N
1539843995.8,286046999.1,N
1539844015.6,286047000.3,N
1539844035.4,286047000.9,N
1539844055.3,286046998.5,N
1539844075.1,286046997.6,N
1539844095.9,286046991.8,Y
1539844115.7,286046993.8,P
1539844135.5,286046986.3,P
1539844155.4,286046995.4,N
1539844175.2,286046997.4,N
1539844195.0,286046996.3,N
1539844195.9,286046996.3,N
1539844215.8,286046995.5,N
1539844235.6,286046993.4,N
1539844255.5,286046993.6,N
1539844275.3,286046991.9,N
1539844295.1,286046994.3,N
1539844315.9,286046990.4,N
1539844335.7,286046990.5,N
1539844355.5,286046991.5,N
1539844375.4,286046989.1,Y
1539844395.2,286046996.3,P
1539844415.1,286046992.5,P
1539844416.0,286046992.5,P
1539844435.8,286046991.9,Y
1539844455.6,286046998.2,P
1539844475.5,286046998.6,N
1539844495.3,286046998.6,N
1539844515.2,286046999.1,N
1539844535.9,286046996.6,N
1539844555.7,286046999.6,N
1539844575.6,286046997.4,N
1539844595.4,286046999.1,N
1539844615.2,286046999.6,N
1539844635.1,286046994.9,Y
1539844636.0,286046994.9,P
1539844655.8,286047001.0,N
1539844675.7,286046996.6,N
1539844695.5,286046997.2,N
1539844715.3,286046995.4,N
1539844735.2,286046994.7,N
1539844755.9,286046992.4,Y
1539844775.7,286046999.2,P
1539844795.6,286046999.1,N
1539844815.4,286046995.0,P
1539844835.3,286046995.2,N
1539844855.1,286046996.6,N
1539844856.0,286046996.6,N
1539844875.8,286046996.9,N
1539844895.7,286046996.7,N
1539844915.5,286047000.6,N
1539844935.3,286047001.2,N
1539844955.2,286047000.6,N
1539844975.0,286047002.7,N
1539844975.9,286047002.7,N
1539844995.8,286047000.3,N
1539845015.6,286047000.0,N
1539845035.4,286047001.2,N
1539845055.3,286046998.7,N
1539845075.1,286046996.6,N
1539845095.8,286046998.8,N
1539845115.7,286046998.8,N
1539845135.5,286047000.1,N
1539845155.4,286046999.3,N
1539845175.2,286046998.5,N
1539845195.0,286046997.1,N
1539845195.9,286046997.1,N
1539845215.8,286046999.6,N
1539845235.6,286047000.7,N
1539845255.5,286046999.8,N
1539845275.3,286046999.7,N
1539845295.1,286046998.4,N
1539845315.9,286046998.9,N
1539845335.7,286046998.7,N
1539845355.5,286046996.7,N
1539845375.4,286046999.4,N
1539845395.2,286046999.9,N
1539845415.1,286047000.8,N
1539845416.0,286047000.8,N
1539845435.8,286046997.2,N
1539845455.6,286046995.9,N
1539845475.5,286046997.6,N
1539845495.3,286046995.9,N
1539845515.2,286046994.0,Y
1539845535.9,286046999.2,P
1539845555.7,286046999.3,P
1539845575.6,286046998.3,P
1539845595.4,286046996.7,Y
1539845615.2,286046998.7,P
1539845635.1,286047000.7,P
1539845636.0,286047000.7,N
1539845655.8,286046998.1,N
1539845675.7,286046998.5,N
1539845695.5,286046998.1,N
1539845715.3,286046998.4,N
1539845735.2,286046997.7,N
1539845755.0,286046997.5,N
1539845755.9,286046997.5,N
1539845775.8,286046997.3,N
1539845795.6,286046997.5,N
1539845815.4,286046996.9,N
1539845835.3,286046995.0,Y
1539845855.1,286047000.9,P
1539845875.8,286047000.8,N
1539845895.7,286047002.8,N
1539845915.5,286047011.9,Y
1539845935.4,286047001.1,P
1539845955.2,286046997.4,P
1539845975.0,286046995.2,N
1539845975.9,286046995.2,N
1539845995.8,286046999.6,N
